This demonstration page uses our WeatherBlox Daily Observations layout. Learn more.

Left ArrowRight Arrow

Hourly Observations for December 6, 2021

Temp ( °F °C ) Dew Point ( °F °C ) Humidity (%) Winds ( mph kmh ) Pressure ( in mb ) Visibility ( mi km ) Precip ( " mm )
12:56 am 00:56 undefined 31 -0.5 13 -10.7 46 46 NNW 18 30 30.17 1022 10 16 0.00 0.00
1:56 am 01:56 undefined 31 -0.5 13 -10.4 48 48 NNW 20 31 30.19 1022 10 16 0.00 0.00
2:56 am 02:56 undefined 31 -0.4 13 -10.4 47 47 NNW 20 31 30.22 1023 10 16 0.00 0.00
3:56 am 03:56 Mostly Clear 29 -1.7 13 -10.8 50 50 NW 20 31 30.27 1025 10 16 0.00 0.00
4:56 am 04:56 undefined 28 -2.3 13 -10.8 53 53 NNW 16 26 30.30 1026 10 16 0.00 0.00
5:56 am 05:56 Clear 27 -2.9 13 -10.7 55 55 NNW 12 19 30.32 1027 10 16 0.00 0.00
6:56 am 06:56 Partly Cloudy 26 -3.5 13 -10.4 59 59 NW 8 13 30.34 1028 10 16 0.00 0.00
7:46 am 07:46 Mostly Cloudy 27 -3 14 -10 59 59 NNW 20 31 30.37 1028 10 16 0.00 0.00
7:56 am 07:56 undefined 26 -3.3 13 -10.4 58 58 NNW 24 39 30.38 1029 10 16 0.00 0.00
8:56 am 08:56 Sunny 22 -5.3 9 -12.7 56 56 NW 23 37 30.42 1030 10 16 0.00 0.00
9:56 am 09:56 Sunny 22 -5.4 8 -13.5 53 53 NW 16 26 30.45 1031 10 16 0.00 0.00
10:56 am 10:56 Sunny 23 -5 6 -14.3 48 48 NNW 12 19 30.45 1031 10 16 0.00 0.00
11:56 am 11:56 Sunny 25 -4.1 5 -14.8 44 44 WNW 15 24 30.45 1031 10 16 0.00 0.00
12:56 pm 12:56 undefined 25 -4 6 -14.5 44 44 NW 10 17 30.44 1031 10 16 0.00 0.00
1:56 pm 13:56 Sunny 26 -3.3 4 -15.3 39 39 NW 13 20 30.42 1030 10 16 0.00 0.00
2:56 pm 14:56 Sunny 25 -3.9 2 -16.5 37 37 WNW 8 13 30.41 1030 10 16 0.00 0.00
3:56 pm 15:56 Sunny 24 -4.3 1 -17.5 35 35 WNW 8 13 30.40 1029 10 16 0.00 0.00
4:56 pm 16:56 undefined 23 -5.1 1 -17.2 38 38 NNW 6 9 30.38 1029 10 16 0.00 0.00
5:56 pm 17:56 Mostly Cloudy 22 -5.5 1 -17.3 39 39 NNW 3 6 30.36 1028 10 16 0.00 0.00
6:56 pm 18:56 Clear 21 -6.2 2 -16.5 44 44 Calm 30.36 1028 10 16 0.00 0.00
7:56 pm 19:56 Clear 19 -7 5 -15 53 53 Calm 30.34 1028 10 16 0.00 0.00
8:56 pm 20:56 Clear 17 -8.1 5 -14.9 58 58 E 3 6 30.34 1027 10 16 0.00 0.00
9:56 pm 21:56 undefined 18 -8 4 -15.3 56 56 Calm 30.34 1027 10 16 0.00 0.00
10:56 pm 22:56 Partly Cloudy 17 -8.2 5 -15 58 58 SE 3 6 30.32 1027 10 16 0.00 0.00
11:56 pm 23:56 Mostly Cloudy 20 -6.8 7 -13.9 57 57 SE 5 7 30.30 1026 10 16 0.00 0.00

Powered by AerisWeather